TimeEDT,TemperatureF,Dew PointF,Humidity,Sea Level PressureIn,VisibilityMPH,Wind Direction,Wind SpeedMPH,Gust SpeedMPH,PrecipitationIn,Events,Conditions,WindDirDegrees,DateUTC
12:15 AM,71.6,71.6,100,29.78,7.0,Calm,Calm,-,N/A,,Clear,0,2013-06-28 04:15:00
12:35 AM,71.6,71.6,100,29.76,5.0,Calm,Calm,-,N/A,,Clear,0,2013-06-28 04:35:00
12:55 AM,71.6,71.6,100,29.76,3.0,Calm,Calm,-,N/A,,Clear,0,2013-06-28 04:55:00
1:15 AM,71.6,71.6,100,29.76,5.0,Calm,Calm,-,N/A,Thunderstorm,Scattered Clouds,0,2013-06-28 05:15:00
1:35 AM,71.6,71.6,100,29.76,7.0,Calm,Calm,-,0.01,Thunderstorm,Mostly Cloudy,0,2013-06-28 05:35:00
1:55 AM,71.6,71.6,100,29.76,7.0,Calm,Calm,-,0.01,,Overcast,0,2013-06-28 05:55:00
2:35 AM,71.6,71.6,100,29.75,7.0,SW,3.5,-,N/A,,Scattered Clouds,230,2013-06-28 06:35:00
2:55 AM,71.6,71.6,100,29.74,7.0,Calm,Calm,-,N/A,,Scattered Clouds,0,2013-06-28 06:55:00
3:15 AM,71.6,71.6,100,29.74,10.0,SSW,4.6,-,N/A,,Clear,200,2013-06-28 07:15:00
3:35 AM,71.6,71.6,100,29.74,10.0,SW,5.8,-,N/A,,Clear,220,2013-06-28 07:35:00
3:55 AM,71.6,71.6,100,29.73,7.0,SW,4.6,-,N/A,,Clear,230,2013-06-28 07:55:00
4:15 AM,71.6,71.6,100,29.73,7.0,SW,4.6,-,N/A,,Mostly Cloudy,230,2013-06-28 08:15:00
4:35 AM,71.6,71.6,100,29.72,7.0,SW,6.9,-,N/A,,Mostly Cloudy,230,2013-06-28 08:35:00
4:55 AM,69.8,69.8,100,29.72,7.0,WSW,3.5,-,N/A,,Scattered Clouds,240,2013-06-28 08:55:00
5:15 AM,69.8,69.8,100,29.72,5.0,SW,4.6,-,N/A,,Scattered Clouds,230,2013-06-28 09:15:00
5:35 AM,69.8,69.8,100,29.72,4.0,Calm,Calm,-,N/A,,Mostly Cloudy,0,2013-06-28 09:35:00
5:55 AM,69.8,69.8,100,29.72,5.0,SW,3.5,-,N/A,,Mostly Cloudy,220,2013-06-28 09:55:00
6:15 AM,69.8,69.8,100,29.72,3.0,WSW,3.5,-,N/A,,Scattered Clouds,250,2013-06-28 10:15:00
6:35 AM,69.8,69.8,100,29.72,4.0,Calm,Calm,-,N/A,,Clear,0,2013-06-28 10:35:00
6:55 AM,69.8,69.8,100,29.72,4.0,Calm,Calm,-,N/A,,Clear,0,2013-06-28 10:55:00
7:15 AM,71.6,71.6,100,29.72,5.0,SW,3.5,-,N/A,,Clear,230,2013-06-28 11:15:00
7:35 AM,71.6,71.6,100,29.72,7.0,SW,4.6,-,N/A,,Clear,220,2013-06-28 11:35:00
7:55 AM,73.4,73.4,100,29.72,10.0,WSW,3.5,-,N/A,,Clear,240,2013-06-28 11:55:00
9:15 AM,78.8,71.6,78,29.72,10.0,SW,5.8,-,N/A,,Clear,230,2013-06-28 13:15:00
9:35 AM,78.8,71.6,78,29.72,10.0,SW,4.6,-,N/A,,Clear,230,2013-06-28 13:35:00
9:55 AM,80.6,71.6,74,29.72,10.0,WSW,3.5,-,N/A,,Clear,250,2013-06-28 13:55:00
10:15 AM,80.6,69.8,70,29.72,7.0,WSW,5.8,-,N/A,,Clear,240,2013-06-28 14:15:00
10:35 AM,80.6,71.6,74,29.72,10.0,West,3.5,-,N/A,,Clear,280,2013-06-28 14:35:00
10:55 AM,82.4,69.8,66,29.72,10.0,WSW,5.8,-,N/A,,Clear,240,2013-06-28 14:55:00
11:15 AM,82.4,69.8,66,29.72,10.0,WSW,6.9,-,N/A,,Clear,240,2013-06-28 15:15:00
11:35 AM,82.4,71.6,70,29.72,10.0,WSW,8.1,-,N/A,,Clear,240,2013-06-28 15:35:00
11:55 AM,84.2,69.8,62,29.72,10.0,WSW,5.8,-,N/A,,Scattered Clouds,250,2013-06-28 15:55:00
12:15 PM,86.0,71.6,62,29.71,10.0,WSW,6.9,-,N/A,,Scattered Clouds,240,2013-06-28 16:15:00
12:35 PM,86.0,69.8,58,29.71,10.0,West,5.8,-,N/A,,Scattered Clouds,260,2013-06-28 16:35:00
12:55 PM,86.0,69.8,58,29.70,10.0,West,3.5,16.1,N/A,,Scattered Clouds,260,2013-06-28 16:55:00
1:15 PM,86.0,69.8,58,29.69,10.0,WSW,3.5,-,N/A,,Clear,250,2013-06-28 17:15:00
1:35 PM,86.0,69.8,58,29.69,10.0,West,5.8,-,N/A,,Scattered Clouds,270,2013-06-28 17:35:00
1:55 PM,86.0,68.0,55,29.69,10.0,WSW,8.1,17.3,N/A,,Mostly Cloudy,240,2013-06-28 17:55:00
2:15 PM,86.0,68.0,55,29.68,10.0,SW,6.9,-,N/A,,Scattered Clouds,230,2013-06-28 18:15:00
2:35 PM,87.8,68.0,52,29.67,10.0,West,5.8,-,N/A,,Scattered Clouds,260,2013-06-28 18:35:00
2:55 PM,87.8,68.0,52,29.67,10.0,SW,10.4,-,N/A,,Scattered Clouds,230,2013-06-28 18:55:00
3:15 PM,87.8,71.6,58,29.66,10.0,SSW,9.2,-,N/A,,Scattered Clouds,200,2013-06-28 19:15:00
3:35 PM,87.8,71.6,58,29.64,10.0,SSW,13.8,18.4,N/A,,Clear,210,2013-06-28 19:35:00
3:55 PM,87.8,71.6,58,29.63,10.0,South,11.5,20.7,N/A,,Scattered Clouds,190,2013-06-28 19:55:00
4:15 PM,87.8,71.6,58,29.62,10.0,SSW,11.5,20.7,N/A,,Clear,210,2013-06-28 20:15:00
4:35 PM,87.8,71.6,58,29.61,10.0,SW,10.4,17.3,N/A,Thunderstorm,Clear,230,2013-06-28 20:35:00
4:55 PM,86.0,71.6,62,29.60,10.0,South,8.1,-,N/A,,Clear,190,2013-06-28 20:55:00
5:15 PM,84.2,71.6,66,29.60,7.0,SSW,10.4,18.4,N/A,Thunderstorm,Thunderstorm,210,2013-06-28 21:15:00
5:35 PM,69.8,68.0,94,29.70,0.8,NW,8.1,38.0,0.93,Rain-Thunderstorm,Heavy Thunderstorms and Rain,310,2013-06-28 21:35:00
6:16 PM,71.6,69.8,94,29.63,10.0,Calm,Calm,-,N/A,Thunderstorm,Thunderstorm,0,2013-06-28 22:16:00
6:34 PM,71.6,71.6,100,29.65,10.0,Calm,Calm,-,N/A,Thunderstorm,Clear,0,2013-06-28 22:34:00
6:54 PM,73.4,71.6,94,29.65,10.0,North,-9999.0,-,N/A,,Clear,0,2013-06-28 22:54:00
7:16 PM,73.4,71.6,94,29.65,10.0,South,9.2,-,N/A,,Clear,190,2013-06-28 23:16:00
7:34 PM,73.4,71.6,94,29.64,10.0,North,-9999.0,-,N/A,,Clear,0,2013-06-28 23:34:00
7:54 PM,73.4,71.6,94,29.63,10.0,North,-9999.0,-,N/A,,Clear,0,2013-06-28 23:54:00
7:55 PM,73.4,71.6,94,29.63,10.0,North,-9999.0,-,N/A,,Clear,0,2013-06-28 23:55:00
8:15 PM,73.4,71.6,94,29.64,10.0,North,-9999.0,-,N/A,,Clear,0,2013-06-29 00:15:00
8:35 PM,71.6,71.6,100,29.64,10.0,North,-9999.0,-,N/A,,Clear,0,2013-06-29 00:35:00
8:55 PM,71.6,69.8,94,29.64,10.0,SSW,4.6,-,N/A,,Clear,200,2013-06-29 00:55:00
9:15 PM,71.6,69.8,94,29.64,10.0,SW,5.8,-,N/A,,Clear,230,2013-06-29 01:15:00
9:35 PM,71.6,69.8,94,29.64,10.0,SW,6.9,-,N/A,,Clear,220,2013-06-29 01:35:00
9:55 PM,71.6,69.8,94,29.64,10.0,SW,6.9,-,N/A,,Clear,220,2013-06-29 01:55:00
10:15 PM,71.6,69.8,94,29.66,10.0,SW,5.8,-,N/A,Thunderstorm,Clear,230,2013-06-29 02:15:00
10:35 PM,71.6,69.8,94,29.67,10.0,WSW,8.1,-,N/A,Thunderstorm,Mostly Cloudy,240,2013-06-29 02:35:00
10:55 PM,71.6,69.8,94,29.68,10.0,SW,9.2,-,N/A,Thunderstorm,Overcast,230,2013-06-29 02:55:00
11:15 PM,71.6,69.8,94,29.69,10.0,WSW,11.5,19.6,0.02,Rain-Thunderstorm,Rain,240,2013-06-29 03:15:00
11:35 PM,71.6,69.8,94,29.71,7.0,SW,12.7,17.3,0.08,Rain,Rain,230,2013-06-29 03:35:00
11:55 PM,69.8,69.8,100,29.72,10.0,WSW,10.4,19.6,0.10,Rain-Thunderstorm,Rain,240,2013-06-29 03:55:00